Theta_e
321 323 329 330 330 332 335 335 334 333 335 334 334 335 331 333 335 336 338 339 338 334 337 338 338 338 338 338 337 338 334 335 340
326 327 323 329 331 333 333 333 334 333 334 335 333 333 331 334 335 334 336 338 337 335 338 336 337 337 336 337 337 337 336 334 339
325 327 330 329 329 330 331 332 333 334 333 334 334 333 331 336 336 335 336 335 334 337 334 334 335 336 336 336 337 337 337 336 336
323 324 325 327 330 331 331 331 332 334 332 332 333 333 331 337 335 334 337 335 335 338 335 334 333 334 332 335 336 336 336 336 335
320 321 322 324 325 327 329 330 331 331 331 331 331 331 334 335 334 334 331 333 335 337 333 335 334 332 333 333 334 334 335 335 336
319 317 318 320 322 323 325 325 326 330 330 330 329 333 333 333 333 333 330 334 336 337 334 332 333 332 332 331 332 333 333 334 334
317 317 317 318 319 320 321 322 323 329 330 331 331 331 331 331 331 329 330 333 335 335 333 332 332 332 332 332 332 332 331 332 332
316 316 317 317 319 320 322 323 324 325 327 328 328 329 329 329 328 327 328 330 332 334 334 330 331 332 332 333 332 332 330 329 329
314 314 315 316 316 317 319 320 322 322 322 324 323 325 326 325 325 325 325 327 329 331 333 332 331 332 333 334 331 326 323 323 325
312 312 312 312 312 313 314 316 318 321 320 320 319 321 322 322 323 323 325 325 326 327 329 331 330 331 332 331 329 323 322 323 321
310 309 309 308 309 309 312 314 316 317 318 316 316 317 318 319 320 321 322 323 324 324 325 326 328 329 329 329 328 326 323 324 321
306 306 305 305 306 309 311 312 314 315 315 315 314 314 314 315 316 317 318 319 320 322 322 323 325 325 327 326 324 322 320 320 319
304 304 304 305 305 309 310 311 312 312 313 313 313 313 312 311 311 313 315 315 315 317 319 320 321 320 320 322 325 325 325 325 324
302 302 302 303 304 307 309 311 312 312 311 311 311 311 311 310 309 308 308 310 312 313 314 315 316 316 317 318 320 322 323 323 324
300 301 301 302 303 304 307 309 310 311 310 309 309 309 308 308 307 307 306 305 306 307 309 311 312 313 314 314 316 319 323 323 323
299 300 300 301 302 302 302 304 307 307 308 311 310 309 308 307 306 305 305 304 303 303 303 304 306 308 312 313 314 316 320 321 321
298 299 299 300 300 301 302 302 302 302 303 307 308 312 310 307 305 304 303 302 302 301 301 301 302 303 306 309 312 311 316 318 318
297 297 298 298 299 300 300 301 302 302 301 302 306 309 310 306 305 303 302 300 300 299 299 298 298 299 300 303 308 308 311 314 315
295 296 297 297 298 298 297 299 300 302 302 300 301 302 303 306 306 304 301 299 299 298 297 297 296 296 297 297 300 304 307 310 311
294 295 295 295 296 296 297 297 298 298 299 300 300 300 301 300 302 305 302 299 299 297 296 296 295 295 294 294 295 300 303 306 307
Wind_Speed
3 4 4 3 3 4 4 2 2 1 0 1 1 3 3 3 2 2 3 2 3 0 0 1 1 2 3 4 4 6 6 6 8
7 4 2 2 1 1 2 4 3 1 1 1 1 2 2 3 3 3 2 2 3 1 1 2 3 3 3 4 5 7 8 9 9
5 5 6 3 1 4 4 3 4 3 1 0 1 1 2 2 3 3 3 4 2 3 3 4 4 3 4 5 6 7 9 9 9
6 3 4 2 4 5 1 2 1 1 2 1 1 2 2 5 4 3 4 6 3 5 4 4 3 5 4 5 5 7 8 10 11
3 1 5 3 2 3 1 1 1 2 1 1 3 4 7 4 3 5 7 6 6 5 3 2 2 2 4 5 5 5 6 9 12
3 0 3 2 1 3 3 4 5 1 3 4 4 5 4 5 6 6 9 9 8 6 5 3 3 3 4 5 6 2 2 4 8
4 5 5 5 3 3 3 3 2 3 4 5 3 4 5 7 10 9 10 12 10 9 6 4 4 4 4 4 4 6 8 3 9
3 3 2 2 5 4 4 4 5 5 5 4 2 2 4 13 7 8 10 12 11 11 12 7 4 3 2 4 2 1 2 5 5
4 4 4 5 5 6 6 6 7 7 8 8 7 8 7 5 7 7 10 13 17 13 12 11 8 1 3 5 7 6 7 3 5
5 5 5 5 6 6 6 6 7 8 8 8 8 8 9 9 8 7 5 6 10 19 18 15 13 4 6 3 5 6 8 4 6
4 5 5 6 6 6 6 7 6 7 8 9 9 8 9 11 10 9 9 7 6 8 13 21 18 9 4 4 7 5 6 2 9
5 5 6 6 6 7 7 8 7 8 8 8 8 8 8 9 10 11 10 9 10 9 9 7 12 21 14 8 3 5 8 7 8
5 5 5 6 6 6 7 8 8 8 8 8 8 7 8 9 9 9 8 9 10 10 9 9 10 15 20 21 19 10 8 9 11
6 6 5 5 6 7 7 8 8 9 9 9 8 8 8 9 10 11 11 10 11 9 9 10 10 11 11 15 15 18 15 13 15
6 6 6 5 5 6 7 8 9 9 8 8 8 7 8 8 9 9 10 12 12 11 11 11 13 12 11 13 19 20 19 18 23
6 6 6 6 5 5 5 7 7 7 5 5 6 6 6 7 8 8 8 10 10 12 12 11 11 12 13 14 15 21 20 21 23
7 6 6 5 6 5 5 3 6 6 4 0 1 3 5 4 5 6 6 8 8 10 11 12 12 12 12 14 12 19 19 20 22
8 7 6 6 5 5 5 4 3 4 4 5 2 2 2 2 4 5 5 7 8 7 9 10 11 11 12 10 9 18 19 17 17
10 10 8 7 5 5 5 4 4 4 5 4 5 5 3 1 2 5 3 4 5 6 6 7 8 9 10 11 11 17 17 16 16
10 9 8 8 7 6 5 5 4 5 5 4 3 3 2 2 2 1 6 3 3 3 4 5 5 6 6 8 10 13 14 15 16
Wind_Direction
327 270 269 276 276 302 354 337 334 358 47 68 20 329 353 37 353 11 358 345 342 93 26 354 286 270 255 247 220 198 194 189 180
50 11 75 100 146 249 320 334 345 348 359 39 310 288 13 14 18 4 6 279 280 272 329 300 304 300 268 254 244 235 210 191 199
83 81 79 76 226 245 278 297 319 8 29 353 298 314 30 342 28 23 14 310 338 344 281 309 282 282 287 265 249 249 243 228 211
143 152 163 158 85 71 143 236 282 28 44 27 19 19 46 25 45 26 51 354 357 351 321 299 286 277 272 293 270 263 255 255 240
123 125 224 198 192 198 87 71 357 16 40 54 52 57 59 43 29 49 20 16 356 343 349 313 279 275 283 276 282 278 283 275 265
55 6 118 183 206 262 266 279 275 120 39 39 61 44 32 61 50 55 38 27 18 4 319 313 287 275 271 282 288 277 302 313 295
108 78 74 58 62 31 7 24 33 162 75 81 55 69 52 54 66 41 45 36 26 26 9 313 306 286 282 269 250 256 242 299 331
92 88 67 65 65 74 68 65 61 59 60 53 72 88 64 51 59 57 50 45 41 29 23 14 334 302 244 222 194 210 79 28 26
99 87 79 74 65 70 75 77 76 71 68 59 57 71 81 85 72 71 57 57 49 43 36 35 32 106 135 137 120 73 53 20 305
87 78 72 67 59 66 71 76 79 79 79 72 63 68 76 87 83 64 69 60 59 55 47 38 43 79 97 105 100 79 41 37 21
93 87 77 67 67 67 79 86 87 86 81 70 69 69 75 74 77 72 62 62 51 53 47 52 47 51 53 99 95 98 14 318 330
98 94 83 73 67 76 80 78 81 85 82 78 72 68 62 63 64 64 62 58 55 51 49 54 62 55 49 53 28 337 322 319 312
102 93 80 70 69 78 83 89 91 91 87 83 76 76 72 64 61 65 60 55 56 50 52 56 66 56 43 42 41 32 352 322 317
115 103 92 82 77 83 89 91 96 94 90 89 83 76 75 70 64 60 57 54 57 55 49 45 49 43 35 32 24 24 17 8 351
116 106 98 95 92 84 91 99 95 95 96 93 85 79 78 77 72 64 58 53 48 44 44 44 46 43 38 39 37 32 32 25 21
122 113 103 98 103 108 103 102 108 94 104 127 110 92 81 73 70 65 59 53 48 46 45 39 35 35 45 46 43 40 37 35 34
136 131 120 111 104 99 99 123 115 96 77 91 290 178 158 102 66 63 63 57 49 45 40 39 40 39 35 46 50 41 37 39 36
153 143 130 123 119 110 101 98 130 128 79 71 360 222 62 143 126 66 66 67 62 52 45 36 38 39 28 32 44 51 40 38 34
166 158 149 139 126 122 114 105 103 127 131 96 66 61 51 308 170 145 102 68 64 62 56 52 38 41 43 28 37 43 38 35 34
167 161 157 153 147 140 118 99 89 102 119 105 117 84 68 42 310 253 148 150 87 51 51 53 50 48 35 31 29 44 30 29 31